Time,TemperatureF,DewpointF,PressureIn,WindDirection,WindDirectionDegrees,WindSpeedMPH,WindSpeedGustMPH,Humidity,HourlyPrecipIn,Conditions,Clouds,dailyrainin,SoftwareType,DateUTC
2013-05-07 00:01:00,44.2,42.9,17.72,SW,216,0.0,0.0,95,0.00,,,0.00,VWS V14.01,2013-05-07 04:01:00,
2013-05-07 00:06:00,44.2,42.9,17.72,SW,221,0.0,0.0,95,0.00,,,0.00,VWS V14.01,2013-05-07 04:06:00,
2013-05-07 00:11:00,44.2,42.9,17.72,WSW,242,0.0,0.0,95,0.00,,,0.00,VWS V14.01,2013-05-07 04:11:00,
2013-05-07 00:16:00,44.2,42.9,17.72,SW,219,0.0,0.0,95,0.00,,,0.00,VWS V14.01,2013-05-07 04:16:00,
2013-05-07 00:21:00,44.2,42.9,17.72,SW,218,0.0,0.0,95,0.00,,,0.00,VWS V14.01,2013-05-07 04:21:00,
2013-05-07 00:26:00,44.2,42.9,17.72,SW,218,0.0,0.0,95,0.00,,,0.00,VWS V14.01,2013-05-07 04:26:00,
2013-05-07 00:31:00,44.2,42.9,17.72,South,190,0.0,0.0,95,0.00,,,0.00,VWS V14.01,2013-05-07 04:31:00,
2013-05-07 00:36:00,44.2,42.9,17.72,South,190,0.0,0.0,95,0.00,,,0.00,VWS V14.01,2013-05-07 04:36:00,
2013-05-07 00:41:00,44.2,42.9,17.72,WSW,240,0.0,0.0,95,0.00,,,0.00,VWS V14.01,2013-05-07 04:41:00,
2013-05-07 00:46:00,44.4,43.1,17.72,WSW,245,0.0,0.0,95,0.00,,,0.00,VWS V14.01,2013-05-07 04:46:00,
2013-05-07 00:51:00,44.4,43.1,17.72,SW,233,0.0,0.0,95,0.00,,,0.00,VWS V14.01,2013-05-07 04:51:00,
2013-05-07 00:56:00,44.6,43.3,17.72,WSW,240,0.0,0.0,95,0.00,,,0.00,VWS V14.01,2013-05-07 04:56:00,
2013-05-07 01:01:00,44.6,43.3,17.72,WSW,250,9.8,9.8,95,0.00,,,0.00,VWS V14.01,2013-05-07 05:01:00,
2013-05-07 01:06:00,44.8,43.4,17.72,WSW,251,0.0,0.0,95,0.00,,,0.00,VWS V14.01,2013-05-07 05:06:00,
2013-05-07 01:11:00,44.8,43.4,17.72,SW,232,0.0,0.0,95,0.00,,,0.00,VWS V14.01,2013-05-07 05:11:00,
2013-05-07 01:16:00,44.8,43.4,17.72,WSW,253,0.0,0.0,95,0.00,,,0.00,VWS V14.01,2013-05-07 05:16:00,
2013-05-07 01:21:00,44.8,43.4,17.72,SW,234,0.0,0.0,95,0.00,,,0.00,VWS V14.01,2013-05-07 05:21:00,
2013-05-07 01:26:00,44.8,43.4,17.72,South,190,0.0,0.0,95,0.00,,,0.00,VWS V14.01,2013-05-07 05:26:00,
2013-05-07 01:31:00,44.6,43.3,17.72,South,190,0.0,0.0,95,0.00,,,0.00,VWS V14.01,2013-05-07 05:31:00,
2013-05-07 01:36:00,44.6,43.5,17.72,SW,236,0.0,0.0,96,0.00,,,0.00,VWS V14.01,2013-05-07 05:36:00,
2013-05-07 01:41:00,44.6,43.5,17.72,WSW,251,0.0,0.0,96,0.00,,,0.00,VWS V14.01,2013-05-07 05:41:00,
2013-05-07 01:46:00,44.8,43.7,17.72,SW,230,0.0,2.7,96,0.00,,,0.00,VWS V14.01,2013-05-07 05:46:00,
2013-05-07 01:51:00,44.6,43.5,17.72,WSW,238,0.0,0.0,96,0.00,,,0.00,VWS V14.01,2013-05-07 05:51:00,
2013-05-07 01:56:00,44.6,43.5,17.72,WSW,242,0.0,0.0,96,0.00,,,0.00,VWS V14.01,2013-05-07 05:56:00,
2013-05-07 02:01:00,44.6,43.5,17.72,WSW,246,0.0,0.0,96,0.00,,,0.00,VWS V14.01,2013-05-07 06:01:00,
2013-05-07 02:06:00,44.6,43.5,17.72,WSW,246,0.0,0.0,96,0.00,,,0.00,VWS V14.01,2013-05-07 06:06:00,
2013-05-07 02:11:00,44.6,43.5,17.72,South,189,0.0,0.0,96,0.00,,,0.00,VWS V14.01,2013-05-07 06:11:00,
2013-05-07 02:16:00,44.6,43.5,17.72,WNW,283,0.0,0.0,96,0.00,,,0.00,VWS V14.01,2013-05-07 06:16:00,
2013-05-07 02:21:00,44.6,43.5,17.72,WSW,245,0.0,0.0,96,0.00,,,0.00,VWS V14.01,2013-05-07 06:21:00,
2013-05-07 02:26:00,44.6,43.5,17.72,SW,224,0.0,0.0,96,0.00,,,0.00,VWS V14.01,2013-05-07 06:26:00,
2013-05-07 02:31:00,44.6,43.5,17.72,South,190,0.0,0.0,96,0.00,,,0.00,VWS V14.01,2013-05-07 06:31:00,
2013-05-07 02:36:00,44.6,43.5,17.72,South,190,0.0,0.0,96,0.00,,,0.00,VWS V14.01,2013-05-07 06:36:00,
2013-05-07 02:41:00,44.6,43.5,17.72,South,190,0.0,0.0,96,0.00,,,0.00,VWS V14.01,2013-05-07 06:41:00,
2013-05-07 02:46:00,44.4,43.6,17.72,South,190,0.0,0.0,97,0.00,,,0.00,VWS V14.01,2013-05-07 06:46:00,
2013-05-07 02:51:00,44.4,43.6,17.72,SW,233,0.0,0.0,97,0.00,,,0.00,VWS V14.01,2013-05-07 06:51:00,
2013-05-07 02:56:00,44.4,43.6,17.72,WSW,241,0.0,0.0,97,0.00,,,0.00,VWS V14.01,2013-05-07 06:56:00,
2013-05-07 03:01:00,44.4,43.6,17.72,SW,230,0.0,0.0,97,0.00,,,0.00,VWS V14.01,2013-05-07 07:01:00,
2013-05-07 03:06:00,44.4,43.6,17.72,SSW,200,0.0,0.0,97,0.00,,,0.00,VWS V14.01,2013-05-07 07:06:00,
2013-05-07 03:11:00,44.4,43.6,17.72,SW,226,0.0,0.0,97,0.00,,,0.00,VWS V14.01,2013-05-07 07:11:00,
2013-05-07 03:16:00,44.2,43.4,17.72,SW,217,0.0,0.0,97,0.00,,,0.00,VWS V14.01,2013-05-07 07:16:00,
2013-05-07 03:21:00,44.2,43.4,17.72,SSW,199,0.0,0.0,97,0.00,,,0.00,VWS V14.01,2013-05-07 07:21:00,
2013-05-07 03:26:00,44.2,43.4,17.72,SSW,198,0.0,0.0,97,0.00,,,0.00,VWS V14.01,2013-05-07 07:26:00,
2013-05-07 03:31:00,44.4,43.6,17.72,South,178,0.0,0.0,97,0.00,,,0.00,VWS V14.01,2013-05-07 07:31:00,
2013-05-07 03:36:00,44.4,43.6,17.72,South,169,0.0,0.0,97,0.00,,,0.00,VWS V14.01,2013-05-07 07:36:00,
2013-05-07 03:41:00,44.4,43.6,17.72,SW,215,0.0,0.0,97,0.00,,,0.00,VWS V14.01,2013-05-07 07:41:00,
2013-05-07 03:46:00,44.4,43.6,17.72,South,171,0.0,0.0,97,0.00,,,0.00,VWS V14.01,2013-05-07 07:46:00,
2013-05-07 03:51:00,44.4,43.6,17.72,West,278,0.0,0.0,97,0.00,,,0.00,VWS V14.01,2013-05-07 07:51:00,
2013-05-07 03:56:00,44.4,43.6,17.72,West,275,0.0,0.0,97,0.00,,,0.00,VWS V14.01,2013-05-07 07:56:00,
2013-05-07 04:01:00,44.4,43.6,17.72,WSW,237,0.0,0.0,97,0.00,,,0.00,VWS V14.01,2013-05-07 08:01:00,
2013-05-07 04:06:00,44.4,43.6,17.72,WSW,240,0.0,0.0,97,0.00,,,0.00,VWS V14.01,2013-05-07 08:06:00,
2013-05-07 04:11:00,44.4,43.6,17.72,WSW,253,0.0,0.0,97,0.00,,,0.00,VWS V14.01,2013-05-07 08:11:00,
2013-05-07 04:16:00,44.4,43.6,17.72,WSW,249,0.0,0.0,97,0.00,,,0.00,VWS V14.01,2013-05-07 08:16:00,
2013-05-07 04:21:00,44.6,43.8,17.72,WSW,249,0.0,0.0,97,0.00,,,0.00,VWS V14.01,2013-05-07 08:21:00,
2013-05-07 04:26:00,44.6,43.8,17.72,WSW,237,0.0,0.0,97,0.00,,,0.00,VWS V14.01,2013-05-07 08:26:00,
2013-05-07 04:31:00,44.4,43.6,17.72,WSW,253,0.0,0.0,97,0.00,,,0.00,VWS V14.01,2013-05-07 08:31:00,
2013-05-07 04:36:00,44.4,43.6,17.72,SW,233,0.0,0.0,97,0.00,,,0.00,VWS V14.01,2013-05-07 08:36:00,
2013-05-07 04:41:00,44.4,43.6,17.72,WSW,245,0.0,0.0,97,0.00,,,0.00,VWS V14.01,2013-05-07 08:41:00,
2013-05-07 04:46:00,44.4,43.6,17.72,WSW,245,0.0,0.0,97,0.00,,,0.00,VWS V14.01,2013-05-07 08:46:00,
2013-05-07 04:51:00,44.4,43.6,17.72,South,171,0.0,0.0,97,0.00,,,0.00,VWS V14.01,2013-05-07 08:51:00,
2013-05-07 04:56:00,44.4,43.6,17.72,WSW,242,0.0,0.0,97,0.00,,,0.00,VWS V14.01,2013-05-07 08:56:00,
2013-05-07 05:01:00,44.2,43.4,17.72,South,190,0.0,0.0,97,0.00,,,0.00,VWS V14.01,2013-05-07 09:01:00,
2013-05-07 05:06:00,44.2,43.4,17.72,SW,223,0.0,0.0,97,0.00,,,0.00,VWS V14.01,2013-05-07 09:06:00,
2013-05-07 05:11:00,44.4,43.9,17.72,SW,214,0.0,0.0,98,0.00,,,0.00,VWS V14.01,2013-05-07 09:11:00,
2013-05-07 05:16:00,44.4,43.9,17.72,SW,229,0.0,0.0,98,0.00,,,0.00,VWS V14.01,2013-05-07 09:16:00,
2013-05-07 05:21:00,44.4,43.9,17.72,South,187,0.0,0.0,98,0.00,,,0.00,VWS V14.01,2013-05-07 09:21:00,
2013-05-07 05:26:00,44.4,43.9,17.72,WSW,243,0.0,0.0,98,0.00,,,0.00,VWS V14.01,2013-05-07 09:26:00,
2013-05-07 05:31:00,44.4,43.9,17.72,WSW,238,0.0,0.0,98,0.00,,,0.00,VWS V14.01,2013-05-07 09:31:00,
2013-05-07 05:36:00,44.4,43.9,17.72,WSW,250,0.0,0.0,98,0.00,,,0.00,VWS V14.01,2013-05-07 09:36:00,
2013-05-07 05:41:00,44.2,43.7,17.72,WSW,256,0.0,0.0,98,0.00,,,0.00,VWS V14.01,2013-05-07 09:41:00,
2013-05-07 05:46:00,44.2,43.7,17.72,SW,225,0.0,0.0,98,0.00,,,0.00,VWS V14.01,2013-05-07 09:46:00,
2013-05-07 05:51:00,44.2,43.7,17.72,WSW,250,0.0,0.0,98,0.00,,,0.00,VWS V14.01,2013-05-07 09:51:00,
2013-05-07 05:56:00,44.2,43.7,17.72,SW,231,0.0,0.0,98,0.00,,,0.00,VWS V14.01,2013-05-07 09:56:00,
2013-05-07 06:01:00,44.2,43.7,17.72,WSW,243,0.0,0.0,98,0.00,,,0.00,VWS V14.01,2013-05-07 10:01:00,
2013-05-07 06:06:00,44.2,43.7,17.72,SSW,201,0.0,0.0,98,0.00,,,0.00,VWS V14.01,2013-05-07 10:06:00,
2013-05-07 06:11:00,44.2,43.7,17.72,SW,221,0.0,0.0,98,0.00,,,0.00,VWS V14.01,2013-05-07 10:11:00,
2013-05-07 06:16:00,44.2,43.7,17.72,SSW,192,0.0,0.0,98,0.00,,,0.00,VWS V14.01,2013-05-07 10:16:00,
2013-05-07 06:21:00,44.4,43.9,17.72,South,173,6.3,6.3,98,0.00,,,0.00,VWS V14.01,2013-05-07 10:21:00,
2013-05-07 06:26:00,44.2,43.7,17.72,SW,223,0.0,0.0,98,0.00,,,0.00,VWS V14.01,2013-05-07 10:26:00,
2013-05-07 06:31:00,44.4,43.9,17.72,SW,219,0.0,0.0,98,0.00,,,0.00,VWS V14.01,2013-05-07 10:31:00,
2013-05-07 06:36:00,44.4,43.9,17.72,WSW,243,0.0,0.0,98,0.00,,,0.00,VWS V14.01,2013-05-07 10:36:00,
2013-05-07 06:41:00,44.6,44.1,17.72,West,263,0.0,0.0,98,0.00,,,0.00,VWS V14.01,2013-05-07 10:41:00,
2013-05-07 06:46:00,44.8,44.2,17.72,SW,223,0.0,0.0,98,0.00,,,0.00,VWS V14.01,2013-05-07 10:46:00,
2013-05-07 06:51:00,44.8,44.2,17.72,WSW,255,0.0,0.0,98,0.00,,,0.00,VWS V14.01,2013-05-07 10:51:00,
2013-05-07 06:56:00,45.1,44.6,17.72,SSW,209,0.0,0.0,98,0.00,,,0.00,VWS V14.01,2013-05-07 10:56:00,
2013-05-07 07:01:00,45.1,44.6,17.72,SSW,198,0.0,0.0,98,0.00,,,0.00,VWS V14.01,2013-05-07 11:01:00,
2013-05-07 07:06:00,45.3,44.8,17.72,WSW,249,0.0,2.2,98,0.00,,,0.00,VWS V14.01,2013-05-07 11:06:00,
2013-05-07 07:11:00,45.5,45.0,17.72,SSE,156,0.0,0.0,98,0.00,,,0.00,VWS V14.01,2013-05-07 11:11:00,
2013-05-07 07:16:00,45.5,45.0,17.72,WSW,243,0.0,0.0,98,0.00,,,0.00,VWS V14.01,2013-05-07 11:16:00,
2013-05-07 07:21:00,45.9,45.3,17.72,WSW,250,0.0,0.0,98,0.00,,,0.00,VWS V14.01,2013-05-07 11:21:00,
2013-05-07 07:26:00,46.0,45.5,17.72,WSW,243,0.0,0.0,98,0.00,,,0.00,VWS V14.01,2013-05-07 11:26:00,
2013-05-07 07:31:00,46.0,45.5,17.72,SW,230,0.0,0.0,98,0.00,,,0.00,VWS V14.01,2013-05-07 11:31:00,
2013-05-07 07:36:00,46.2,45.7,17.72,West,261,4.5,4.5,98,0.00,,,0.00,VWS V14.01,2013-05-07 11:36:00,
2013-05-07 07:41:00,46.0,45.5,17.72,SSW,207,0.0,0.0,98,0.00,,,0.00,VWS V14.01,2013-05-07 11:41:00,
2013-05-07 07:46:00,46.2,45.7,17.72,SSE,164,0.0,0.0,98,0.00,,,0.00,VWS V14.01,2013-05-07 11:46:00,
2013-05-07 07:51:00,46.4,45.9,17.72,South,191,0.0,0.0,98,0.00,,,0.00,VWS V14.01,2013-05-07 11:51:00,
2013-05-07 07:56:00,46.4,45.9,17.72,WSW,241,0.0,0.0,98,0.00,,,0.00,VWS V14.01,2013-05-07 11:56:00,
2013-05-07 08:01:00,46.8,46.2,17.72,SSW,200,0.0,0.0,98,0.00,,,0.00,VWS V14.01,2013-05-07 12:01:00,
2013-05-07 08:06:00,46.8,46.2,17.72,SW,220,0.0,0.0,98,0.00,,,0.00,VWS V14.01,2013-05-07 12:06:00,
2013-05-07 08:11:00,47.1,46.6,17.72,WSW,257,7.2,7.2,98,0.00,,,0.00,VWS V14.01,2013-05-07 12:11:00,
2013-05-07 08:16:00,47.3,46.8,17.72,West,276,0.0,0.0,98,0.00,,,0.00,VWS V14.01,2013-05-07 12:16:00,
2013-05-07 08:21:00,47.7,47.1,17.72,West,260,0.0,2.2,98,0.00,,,0.00,VWS V14.01,2013-05-07 12:21:00,
2013-05-07 08:26:00,47.8,47.3,17.72,South,177,0.0,0.0,98,0.00,,,0.00,VWS V14.01,2013-05-07 12:26:00,
2013-05-07 08:31:00,48.2,47.7,17.72,WSW,237,4.5,4.5,98,0.00,,,0.00,VWS V14.01,2013-05-07 12:31:00,
2013-05-07 08:36:00,48.4,47.8,17.72,SSW,200,0.0,0.0,98,0.00,,,0.00,VWS V14.01,2013-05-07 12:36:00,
2013-05-07 08:41:00,48.2,47.7,17.72,SW,215,0.0,0.0,98,0.00,,,0.00,VWS V14.01,2013-05-07 12:41:00,
2013-05-07 08:46:00,48.6,48.0,17.72,SSW,205,0.0,0.0,98,0.00,,,0.00,VWS V14.01,2013-05-07 12:46:00,
2013-05-07 08:51:00,48.7,48.2,17.72,South,191,0.0,0.0,98,0.00,,,0.00,VWS V14.01,2013-05-07 12:51:00,
2013-05-07 08:56:00,48.9,48.4,17.72,SW,220,0.0,0.0,98,0.00,,,0.00,VWS V14.01,2013-05-07 12:56:00,
2013-05-07 09:01:00,49.3,48.7,17.72,WSW,244,0.0,0.0,98,0.00,,,0.00,VWS V14.01,2013-05-07 13:01:00,
2013-05-07 09:06:00,49.8,49.3,17.72,WSW,244,0.0,0.0,98,0.00,,,0.00,VWS V14.01,2013-05-07 13:06:00,
2013-05-07 09:11:00,50.4,49.8,17.72,SW,223,0.0,0.0,98,0.00,,,0.00,VWS V14.01,2013-05-07 13:11:00,
2013-05-07 09:16:00,50.7,50.2,17.72,SW,217,0.0,0.0,98,0.00,,,0.00,VWS V14.01,2013-05-07 13:16:00,
2013-05-07 09:21:00,51.6,51.1,17.72,South,176,0.0,0.0,98,0.00,,,0.00,VWS V14.01,2013-05-07 13:21:00,
2013-05-07 09:26:00,52.7,52.2,17.72,West,262,0.0,0.0,98,0.00,,,0.00,VWS V14.01,2013-05-07 13:26:00,
2013-05-07 09:31:00,53.8,53.2,17.72,WNW,290,0.0,0.0,98,0.00,,,0.00,VWS V14.01,2013-05-07 13:31:00,
2013-05-07 09:36:00,54.9,54.3,17.72,NW,306,0.0,0.0,98,0.00,,,0.00,VWS V14.01,2013-05-07 13:36:00,
2013-05-07 09:41:00,55.4,54.8,17.72,WSW,251,0.0,0.0,98,0.00,,,0.00,VWS V14.01,2013-05-07 13:41:00,
2013-05-07 09:46:00,55.8,55.2,17.72,WSW,254,0.0,5.4,98,0.00,,,0.00,VWS V14.01,2013-05-07 13:46:00,
2013-05-07 09:51:00,56.3,55.8,17.72,SW,228,11.6,11.6,98,0.00,,,0.00,VWS V14.01,2013-05-07 13:51:00,
2013-05-07 09:56:00,57.0,54.7,17.72,WSW,252,5.4,5.4,92,0.00,,,0.00,VWS V14.01,2013-05-07 13:56:00,
2013-05-07 10:01:00,57.9,50.0,17.72,West,260,5.4,5.4,75,0.00,,OVC006,0.00,VWS V14.01,2013-05-07 14:01:00,
2013-05-07 10:06:00,58.8,47.9,17.72,SSW,198,0.0,0.0,67,0.00,,OVC006,0.00,VWS V14.01,2013-05-07 14:06:00,
2013-05-07 10:11:00,59.5,46.1,17.72,West,274,10.7,10.7,61,0.00,,OVC006,0.00,VWS V14.01,2013-05-07 14:11:00,
2013-05-07 10:16:00,60.4,46.1,17.72,SSW,206,0.0,4.0,59,0.00,,OVC006,0.00,VWS V14.01,2013-05-07 14:16:00,
2013-05-07 10:21:00,61.0,44.7,17.72,South,180,0.0,3.1,55,0.00,,SCT006,0.00,VWS V14.01,2013-05-07 14:21:00,
2013-05-07 10:26:00,61.9,45.1,17.72,WSW,257,0.0,3.6,54,0.00,,SCT006,0.00,VWS V14.01,2013-05-07 14:26:00,
2013-05-07 10:31:00,62.6,45.2,17.72,SW,216,6.3,6.3,53,0.00,,SCT006,0.00,VWS V14.01,2013-05-07 14:31:00,
2013-05-07 10:36:00,63.1,44.2,17.72,WSW,250,5.4,5.4,50,0.00,,SCT006,0.00,VWS V14.01,2013-05-07 14:36:00,
2013-05-07 10:41:00,63.9,44.9,17.72,West,259,0.0,4.0,50,0.00,,SCT006,0.00,VWS V14.01,2013-05-07 14:41:00,
2013-05-07 10:46:00,64.6,45.0,17.72,SW,236,8.1,8.1,49,0.00,,SCT006,0.00,VWS V14.01,2013-05-07 14:46:00,
2013-05-07 10:51:00,64.9,44.2,17.72,SSW,204,6.3,6.3,47,0.00,,SCT006,0.00,VWS V14.01,2013-05-07 14:51:00,
2013-05-07 10:56:00,65.1,44.4,17.72,WSW,243,8.1,8.1,47,0.00,,SCT006,0.00,VWS V14.01,2013-05-07 14:56:00,
2013-05-07 11:01:00,65.7,43.8,17.72,WSW,249,9.8,9.8,45,0.00,,CLR,0.00,VWS V14.01,2013-05-07 15:01:00,
2013-05-07 11:06:00,66.0,44.7,17.72,WSW,237,17.4,17.4,46,0.00,,CLR,0.00,VWS V14.01,2013-05-07 15:06:00,
2013-05-07 11:11:00,66.2,43.7,17.72,SW,222,4.5,4.5,44,0.00,,CLR,0.00,VWS V14.01,2013-05-07 15:11:00,
2013-05-07 11:16:00,66.7,44.2,17.72,SW,225,6.3,6.3,44,0.00,,CLR,0.00,VWS V14.01,2013-05-07 15:16:00,
2013-05-07 11:21:00,67.3,44.0,17.72,WSW,256,21.0,21.0,43,0.00,,CLR,0.00,VWS V14.01,2013-05-07 15:21:00,
2013-05-07 11:26:00,67.5,43.6,17.72,WSW,244,8.1,8.1,42,0.00,,CLR,0.00,VWS V14.01,2013-05-07 15:26:00,
2013-05-07 11:31:00,67.6,43.8,17.72,WSW,239,8.1,8.1,42,0.00,,CLR,0.00,VWS V14.01,2013-05-07 15:31:00,
2013-05-07 11:36:00,68.0,42.1,17.72,West,259,10.7,10.7,39,0.00,,CLR,0.00,VWS V14.01,2013-05-07 15:36:00,
2013-05-07 11:41:00,68.4,43.8,17.72,WSW,242,21.0,21.0,41,0.00,,CLR,0.00,VWS V14.01,2013-05-07 15:41:00,
2013-05-07 11:46:00,68.7,43.5,17.72,SW,225,24.6,24.6,40,0.00,,CLR,0.00,VWS V14.01,2013-05-07 15:46:00,
2013-05-07 11:51:00,68.9,42.3,17.72,WSW,246,12.5,12.5,38,0.00,,CLR,0.00,VWS V14.01,2013-05-07 15:51:00,
2013-05-07 11:56:00,69.1,43.1,17.72,West,273,16.1,16.1,39,0.00,,CLR,0.00,VWS V14.01,2013-05-07 15:56:00,
2013-05-07 12:01:00,69.3,41.9,17.72,SW,225,20.1,20.1,37,0.00,,CLR,0.00,VWS V14.01,2013-05-07 16:01:00,
2013-05-07 12:06:00,69.6,41.5,17.72,WSW,254,11.6,11.6,36,0.00,,CLR,0.00,VWS V14.01,2013-05-07 16:06:00,
2013-05-07 12:11:00,70.0,41.1,17.72,WSW,253,10.7,10.7,35,0.00,,CLR,0.00,VWS V14.01,2013-05-07 16:11:00,
2013-05-07 12:16:00,70.3,41.4,17.72,SW,233,6.3,6.3,35,0.00,,CLR,0.00,VWS V14.01,2013-05-07 16:16:00,
2013-05-07 12:21:00,71.1,42.0,17.72,WSW,245,16.1,16.1,35,0.00,,CLR,0.00,VWS V14.01,2013-05-07 16:21:00,
2013-05-07 12:26:00,71.6,41.8,17.72,SW,231,17.4,17.4,34,0.00,,CLR,0.00,VWS V14.01,2013-05-07 16:26:00,
2013-05-07 12:31:00,71.8,41.2,17.72,WSW,243,10.7,10.7,33,0.00,,CLR,0.00,VWS V14.01,2013-05-07 16:31:00,
2013-05-07 12:36:00,72.1,41.5,17.72,WSW,250,11.6,11.6,33,0.00,,CLR,0.00,VWS V14.01,2013-05-07 16:36:00,
2013-05-07 12:41:00,72.0,41.3,17.72,SSW,199,4.5,4.5,33,0.00,,CLR,0.00,VWS V14.01,2013-05-07 16:41:00,
2013-05-07 12:46:00,72.5,41.8,17.72,SW,233,11.6,11.6,33,0.00,,CLR,0.00,VWS V14.01,2013-05-07 16:46:00,
2013-05-07 12:51:00,72.7,42.0,17.72,WSW,249,10.7,10.7,33,0.00,,CLR,0.00,VWS V14.01,2013-05-07 16:51:00,
2013-05-07 12:56:00,72.9,42.1,17.72,SSW,203,16.6,16.6,33,0.00,,CLR,0.00,VWS V14.01,2013-05-07 16:56:00,
2013-05-07 13:01:00,72.9,41.3,17.72,WSW,244,12.5,12.5,32,0.00,,CLR,0.00,VWS V14.01,2013-05-07 17:01:00,
2013-05-07 13:06:00,73.2,42.4,17.72,West,264,10.7,11.0,33,0.00,,CLR,0.00,VWS V14.01,2013-05-07 17:06:00,
2013-05-07 13:11:00,73.2,41.6,17.72,WSW,248,12.5,12.5,32,0.00,,CLR,0.00,VWS V14.01,2013-05-07 17:11:00,
2013-05-07 13:16:00,73.8,42.1,17.72,SW,232,10.7,10.7,32,0.00,,CLR,0.00,VWS V14.01,2013-05-07 17:16:00,
2013-05-07 13:21:00,73.6,41.9,17.72,WSW,239,9.8,9.8,32,0.00,,CLR,0.00,VWS V14.01,2013-05-07 17:21:00,
2013-05-07 13:26:00,73.2,41.6,17.72,WSW,256,8.1,8.1,32,0.00,,CLR,0.00,VWS V14.01,2013-05-07 17:26:00,
2013-05-07 13:31:00,73.2,40.8,17.72,WSW,252,10.7,10.7,31,0.00,,CLR,0.00,VWS V14.01,2013-05-07 17:31:00,
2013-05-07 13:36:00,73.6,41.1,17.72,WSW,251,10.7,10.7,31,0.00,,CLR,0.00,VWS V14.01,2013-05-07 17:36:00,
2013-05-07 13:41:00,73.8,42.1,17.72,SW,236,12.5,12.5,32,0.00,,CLR,0.00,VWS V14.01,2013-05-07 17:41:00,
2013-05-07 13:46:00,73.8,41.3,17.72,WSW,240,11.6,11.6,31,0.00,,CLR,0.00,VWS V14.01,2013-05-07 17:46:00,
2013-05-07 13:51:00,73.8,41.3,17.72,SSW,211,10.7,10.7,31,0.00,,CLR,0.00,VWS V14.01,2013-05-07 17:51:00,
2013-05-07 13:56:00,73.6,41.1,17.72,SSE,165,5.4,5.4,31,0.00,,CLR,0.00,VWS V14.01,2013-05-07 17:56:00,
2013-05-07 14:01:00,73.9,41.4,17.72,South,180,6.3,6.3,31,0.00,,CLR,0.00,VWS V14.01,2013-05-07 18:01:00,
2013-05-07 14:06:00,74.1,41.6,17.72,WSW,248,15.2,15.2,31,0.00,,CLR,0.00,VWS V14.01,2013-05-07 18:06:00,
2013-05-07 14:11:00,74.7,41.2,17.72,WSW,252,15.2,15.2,30,0.00,,CLR,0.00,VWS V14.01,2013-05-07 18:11:00,
2013-05-07 14:16:00,74.7,40.3,17.72,ESE,123,8.1,8.1,29,0.00,,CLR,0.00,VWS V14.01,2013-05-07 18:16:00,
2013-05-07 14:21:00,74.5,39.3,17.72,WSW,240,10.7,10.7,28,0.00,,CLR,0.00,VWS V14.01,2013-05-07 18:21:00,
2013-05-07 14:26:00,74.5,41.0,17.72,WSW,239,11.6,11.6,30,0.00,,CLR,0.00,VWS V14.01,2013-05-07 18:26:00,
2013-05-07 14:31:00,74.5,40.2,17.72,SW,234,9.8,9.8,29,0.00,,CLR,0.00,VWS V14.01,2013-05-07 18:31:00,
2013-05-07 14:36:00,74.1,39.9,17.72,South,185,11.6,11.6,29,0.00,,CLR,0.00,VWS V14.01,2013-05-07 18:36:00,
2013-05-07 14:41:00,73.4,40.1,17.72,SSE,158,10.7,10.7,30,0.00,,CLR,0.00,VWS V14.01,2013-05-07 18:41:00,
2013-05-07 14:46:00,72.9,40.5,17.72,West,261,10.7,10.7,31,0.00,,CLR,0.00,VWS V14.01,2013-05-07 18:46:00,
2013-05-07 14:51:00,72.7,40.3,17.72,SSW,212,8.1,8.1,31,0.00,,CLR,0.00,VWS V14.01,2013-05-07 18:51:00,
2013-05-07 14:56:00,72.1,39.9,17.72,South,188,6.3,6.3,31,0.00,,CLR,0.00,VWS V14.01,2013-05-07 18:56:00,
2013-05-07 15:01:00,72.1,39.9,17.72,SW,221,14.3,14.3,31,0.00,,CLR,0.00,VWS V14.01,2013-05-07 19:01:00,
2013-05-07 15:06:00,72.0,40.5,17.72,SSW,194,12.5,12.5,32,0.00,,CLR,0.00,VWS V14.01,2013-05-07 19:06:00,
2013-05-07 15:11:00,72.1,40.7,17.72,SW,221,12.5,12.5,32,0.00,,CLR,0.00,VWS V14.01,2013-05-07 19:11:00,
2013-05-07 15:16:00,72.1,40.7,17.72,SSW,206,12.5,12.5,32,0.00,,CLR,0.00,VWS V14.01,2013-05-07 19:16:00,
2013-05-07 15:21:00,72.0,40.5,17.72,SW,230,11.6,11.6,32,0.00,,CLR,0.00,VWS V14.01,2013-05-07 19:21:00,
2013-05-07 15:26:00,71.6,40.2,17.72,WSW,237,8.1,8.1,32,0.00,,CLR,0.00,VWS V14.01,2013-05-07 19:26:00,
2013-05-07 15:31:00,71.1,40.5,17.72,SE,135,8.1,8.1,33,0.00,,CLR,0.00,VWS V14.01,2013-05-07 19:31:00,
2013-05-07 15:36:00,70.5,40.1,17.72,WSW,243,20.1,20.1,33,0.00,,CLR,0.00,VWS V14.01,2013-05-07 19:36:00,
2013-05-07 15:41:00,70.7,40.2,17.72,South,190,15.2,15.2,33,0.00,,CLR,0.00,VWS V14.01,2013-05-07 19:41:00,
2013-05-07 15:46:00,70.5,40.8,17.72,SW,217,7.2,8.1,34,0.00,,CLR,0.00,VWS V14.01,2013-05-07 19:46:00,
2013-05-07 15:51:00,70.2,40.5,17.72,WSW,254,7.2,7.6,34,0.00,,CLR,0.00,VWS V14.01,2013-05-07 19:51:00,
2013-05-07 15:56:00,70.0,40.3,17.72,SW,226,13.4,13.4,34,0.00,,CLR,0.00,VWS V14.01,2013-05-07 19:56:00,
2013-05-07 16:01:00,70.0,41.1,17.72,SSE,165,10.7,10.7,35,0.00,,CLR,0.00,VWS V14.01,2013-05-07 20:01:00,
2013-05-07 16:06:00,69.8,40.9,17.72,SSW,198,12.5,12.5,35,0.00,,CLR,0.00,VWS V14.01,2013-05-07 20:06:00,
2013-05-07 16:11:00,69.3,40.5,17.72,South,177,11.6,11.6,35,0.00,,CLR,0.00,VWS V14.01,2013-05-07 20:11:00,
2013-05-07 16:16:00,68.9,40.9,17.72,West,273,10.7,10.7,36,0.00,,CLR,0.00,VWS V14.01,2013-05-07 20:16:00,
2013-05-07 16:21:00,69.1,41.0,17.72,SSW,211,10.7,10.7,36,0.00,,CLR,0.00,VWS V14.01,2013-05-07 20:21:00,
2013-05-07 16:26:00,69.1,41.0,17.72,WSW,245,11.6,11.6,36,0.00,,CLR,0.00,VWS V14.01,2013-05-07 20:26:00,
2013-05-07 16:31:00,68.7,40.7,17.72,SSW,207,8.9,8.9,36,0.00,,CLR,0.00,VWS V14.01,2013-05-07 20:31:00,
2013-05-07 16:36:00,68.4,40.4,17.72,South,184,7.2,7.2,36,0.00,,CLR,0.00,VWS V14.01,2013-05-07 20:36:00,
2013-05-07 16:41:00,68.4,41.1,17.72,SSW,203,20.1,20.1,37,0.00,,CLR,0.00,VWS V14.01,2013-05-07 20:41:00,
2013-05-07 16:46:00,68.4,41.1,17.72,SSW,211,10.7,10.7,37,0.00,,CLR,0.00,VWS V14.01,2013-05-07 20:46:00,
2013-05-07 16:51:00,68.4,41.1,17.72,West,261,8.1,8.1,37,0.00,,CLR,0.00,VWS V14.01,2013-05-07 20:51:00,
2013-05-07 16:56:00,68.5,41.3,17.72,WSW,246,7.2,7.2,37,0.00,,CLR,0.00,VWS V14.01,2013-05-07 20:56:00,
2013-05-07 17:01:00,68.2,41.6,17.72,WSW,238,17.4,17.4,38,0.00,,CLR,0.00,VWS V14.01,2013-05-07 21:01:00,
2013-05-07 17:06:00,67.6,42.5,17.72,WSW,251,12.5,12.5,40,0.00,,CLR,0.00,VWS V14.01,2013-05-07 21:06:00,
2013-05-07 17:11:00,67.5,43.0,17.72,West,261,17.4,17.4,41,0.00,,CLR,0.00,VWS V14.01,2013-05-07 21:11:00,
2013-05-07 17:16:00,67.3,42.8,17.72,WSW,238,8.1,8.1,41,0.00,,CLR,0.00,VWS V14.01,2013-05-07 21:16:00,
2013-05-07 17:21:00,67.3,43.4,17.72,SSW,202,8.1,8.1,42,0.00,,CLR,0.00,VWS V14.01,2013-05-07 21:21:00,
2013-05-07 17:26:00,67.1,43.3,17.72,NNE,19,0.0,4.0,42,0.00,,CLR,0.00,VWS V14.01,2013-05-07 21:26:00,
2013-05-07 17:31:00,66.9,43.7,17.72,WSW,238,10.7,10.7,43,0.00,,CLR,0.00,VWS V14.01,2013-05-07 21:31:00,
2013-05-07 17:36:00,66.7,43.5,17.72,WSW,241,0.0,0.0,43,0.00,,CLR,0.00,VWS V14.01,2013-05-07 21:36:00,
2013-05-07 17:41:00,66.6,44.0,17.72,South,190,12.5,12.5,44,0.00,,CLR,0.00,VWS V14.01,2013-05-07 21:41:00,
2013-05-07 17:46:00,66.6,44.0,17.72,SSW,207,10.7,10.7,44,0.00,,CLR,0.00,VWS V14.01,2013-05-07 21:46:00,
2013-05-07 17:51:00,66.2,44.2,17.72,West,260,10.7,10.7,45,0.00,,CLR,0.00,VWS V14.01,2013-05-07 21:51:00,
2013-05-07 17:56:00,66.2,44.2,17.72,SSW,205,7.2,7.2,45,0.00,,CLR,0.00,VWS V14.01,2013-05-07 21:56:00,
2013-05-07 18:01:00,66.0,44.7,17.72,SSW,207,6.3,6.3,46,0.00,,CLR,0.00,VWS V14.01,2013-05-07 22:01:00,
2013-05-07 18:06:00,65.8,45.1,17.72,WSW,241,11.6,11.6,47,0.00,,CLR,0.00,VWS V14.01,2013-05-07 22:06:00,
2013-05-07 18:11:00,65.7,45.5,17.72,SW,221,8.1,8.1,48,0.00,,CLR,0.00,VWS V14.01,2013-05-07 22:11:00,
2013-05-07 18:16:00,65.3,45.7,17.72,NNE,22,6.3,6.3,49,0.00,,CLR,0.00,VWS V14.01,2013-05-07 22:16:00,
2013-05-07 18:21:00,65.1,46.0,17.72,SSE,168,5.4,5.4,50,0.00,,CLR,0.00,VWS V14.01,2013-05-07 22:21:00,
2013-05-07 18:26:00,64.9,46.4,17.72,SSW,207,10.7,10.7,51,0.00,,CLR,0.00,VWS V14.01,2013-05-07 22:26:00,
2013-05-07 18:31:00,64.6,46.6,17.72,WSW,254,11.6,11.6,52,0.00,,CLR,0.00,VWS V14.01,2013-05-07 22:31:00,
2013-05-07 18:36:00,64.4,46.9,17.72,SSW,200,7.2,7.2,53,0.00,,CLR,0.00,VWS V14.01,2013-05-07 22:36:00,
2013-05-07 18:41:00,64.0,46.6,17.72,SW,231,7.2,7.2,53,0.00,,CLR,0.00,VWS V14.01,2013-05-07 22:41:00,
2013-05-07 18:46:00,63.7,47.2,17.72,SSW,212,16.6,16.6,55,0.00,,CLR,0.00,VWS V14.01,2013-05-07 22:46:00,
2013-05-07 18:51:00,63.3,47.8,17.72,SSW,207,5.4,5.4,57,0.00,,CLR,0.00,VWS V14.01,2013-05-07 22:51:00,
2013-05-07 18:56:00,63.1,48.6,17.72,South,174,0.0,0.0,59,0.00,,CLR,0.00,VWS V14.01,2013-05-07 22:56:00,
2013-05-07 19:01:00,62.6,48.5,17.72,SW,218,5.4,5.4,60,0.00,,FEW011,0.00,VWS V14.01,2013-05-07 23:01:00,
2013-05-07 19:06:00,62.1,48.9,17.72,South,183,4.5,4.5,62,0.00,,FEW011,0.00,VWS V14.01,2013-05-07 23:06:00,
2013-05-07 19:11:00,61.7,49.8,17.72,SSW,208,6.3,6.3,65,0.00,,FEW011,0.00,VWS V14.01,2013-05-07 23:11:00,
2013-05-07 19:16:00,61.2,50.5,17.72,SSW,200,9.8,9.8,68,0.00,,FEW011,0.00,VWS V14.01,2013-05-07 23:16:00,
2013-05-07 19:21:00,60.6,50.4,17.72,SW,233,5.4,5.4,69,0.00,,BKN009,0.00,VWS V14.01,2013-05-07 23:21:00,
2013-05-07 19:26:00,60.1,50.7,17.72,WSW,258,5.4,5.4,71,0.00,,BKN009,0.00,VWS V14.01,2013-05-07 23:26:00,
2013-05-07 19:31:00,59.7,51.1,17.72,SW,215,4.5,4.5,73,0.00,,BKN009,0.00,VWS V14.01,2013-05-07 23:31:00,
2013-05-07 19:36:00,59.4,50.7,17.72,SSW,212,8.1,8.1,73,0.00,,BKN009,0.00,VWS V14.01,2013-05-07 23:36:00,
2013-05-07 19:41:00,59.0,51.1,17.72,South,176,0.0,0.0,75,0.00,,BKN009,0.00,VWS V14.01,2013-05-07 23:41:00,
2013-05-07 19:46:00,58.6,51.1,17.72,SSW,210,0.0,0.0,76,0.00,,BKN009,0.00,VWS V14.01,2013-05-07 23:46:00,
2013-05-07 19:51:00,58.3,51.5,17.72,SSW,212,0.0,2.7,78,0.00,,BKN009,0.00,VWS V14.01,2013-05-07 23:51:00,
2013-05-07 19:56:00,57.9,51.5,17.72,WSW,242,4.5,4.5,79,0.00,,BKN009,0.00,VWS V14.01,2013-05-07 23:56:00,
2013-05-07 20:01:00,57.6,51.5,17.72,WSW,246,0.0,0.0,80,0.00,,OVC004,0.00,VWS V14.01,2013-05-08 00:01:00,
2013-05-07 20:06:00,57.2,51.1,17.72,SSW,205,0.0,0.0,80,0.00,,OVC004,0.00,VWS V14.01,2013-05-08 00:06:00,
2013-05-07 20:11:00,56.8,51.4,17.72,SSW,212,0.0,0.0,82,0.00,,OVC004,0.00,VWS V14.01,2013-05-08 00:11:00,
2013-05-07 20:16:00,56.7,51.6,17.72,WSW,244,0.0,2.2,83,0.00,,OVC004,0.00,VWS V14.01,2013-05-08 00:16:00,
2013-05-07 20:21:00,56.7,51.9,17.72,WSW,248,6.3,6.3,84,0.00,,OVC004,0.00,VWS V14.01,2013-05-08 00:21:00,
2013-05-07 20:26:00,56.7,51.9,17.72,WSW,239,6.3,6.3,84,0.00,,OVC004,0.00,VWS V14.01,2013-05-08 00:26:00,
2013-05-07 20:31:00,56.5,52.0,17.72,SW,223,6.3,6.3,85,0.00,,OVC004,0.00,VWS V14.01,2013-05-08 00:31:00,
2013-05-07 20:36:00,56.3,52.2,17.72,WSW,242,0.0,0.0,86,0.00,,OVC004,0.00,VWS V14.01,2013-05-08 00:36:00,
2013-05-07 20:41:00,56.3,52.5,17.72,SW,234,6.3,6.3,87,0.00,,OVC004,0.00,VWS V14.01,2013-05-08 00:41:00,
2013-05-07 20:46:00,56.1,52.6,17.72,WNW,282,4.5,4.5,88,0.00,,OVC004,0.00,VWS V14.01,2013-05-08 00:46:00,
2013-05-07 20:51:00,56.1,52.6,17.72,SW,218,0.0,0.0,88,0.00,,OVC004,0.00,VWS V14.01,2013-05-08 00:51:00,
2013-05-07 20:56:00,55.9,52.8,17.72,SW,219,0.0,2.2,89,0.00,,OVC004,0.00,VWS V14.01,2013-05-08 00:56:00,
2013-05-07 21:01:00,55.9,52.8,17.72,SSW,195,0.0,0.0,89,0.00,,OVC004,0.00,VWS V14.01,2013-05-08 01:01:00,
2013-05-07 21:06:00,55.9,52.8,17.72,SSW,213,0.0,0.0,89,0.00,,OVC004,0.00,VWS V14.01,2013-05-08 01:06:00,
2013-05-07 21:11:00,55.8,52.6,17.72,SW,217,0.0,0.0,89,0.00,,OVC004,0.00,VWS V14.01,2013-05-08 01:11:00,
2013-05-07 21:16:00,55.8,52.9,17.72,WSW,252,8.1,8.1,90,0.00,,OVC004,0.00,VWS V14.01,2013-05-08 01:16:00,
2013-05-07 21:21:00,55.6,52.7,17.72,SW,223,0.0,0.0,90,0.00,,OVC004,0.00,VWS V14.01,2013-05-08 01:21:00,
2013-05-07 21:26:00,55.4,52.5,17.72,South,175,0.0,0.0,90,0.00,,OVC004,0.00,VWS V14.01,2013-05-08 01:26:00,
2013-05-07 21:31:00,55.2,52.3,17.72,South,175,0.0,0.0,90,0.00,,OVC004,0.00,VWS V14.01,2013-05-08 01:31:00,
2013-05-07 21:36:00,55.0,52.2,17.72,SW,232,0.0,0.0,90,0.00,,OVC004,0.00,VWS V14.01,2013-05-08 01:36:00,
2013-05-07 21:41:00,54.9,52.0,17.72,SW,233,0.0,0.0,90,0.00,,OVC004,0.00,VWS V14.01,2013-05-08 01:41:00,
2013-05-07 21:46:00,54.7,51.8,17.72,SSW,207,0.0,0.0,90,0.00,,OVC004,0.00,VWS V14.01,2013-05-08 01:46:00,
2013-05-07 21:51:00,54.7,51.8,17.72,SW,231,0.0,0.0,90,0.00,,OVC004,0.00,VWS V14.01,2013-05-08 01:51:00,
2013-05-07 21:56:00,54.7,51.8,17.72,South,183,0.0,0.0,90,0.00,,OVC004,0.00,VWS V14.01,2013-05-08 01:56:00,
2013-05-07 22:01:00,54.7,51.8,17.72,WSW,242,0.0,2.7,90,0.00,,BKN004,0.00,VWS V14.01,2013-05-08 02:01:00,
2013-05-07 22:06:00,54.7,52.1,17.72,SW,225,0.0,0.0,91,0.00,,BKN004,0.00,VWS V14.01,2013-05-08 02:06:00,
2013-05-07 22:11:00,54.5,51.9,17.72,WSW,240,0.0,0.0,91,0.00,,BKN004,0.00,VWS V14.01,2013-05-08 02:11:00,
2013-05-07 22:16:00,54.3,51.8,17.72,West,265,0.0,0.0,91,0.00,,BKN004,0.00,VWS V14.01,2013-05-08 02:16:00,
2013-05-07 22:21:00,54.1,51.6,17.72,West,265,0.0,0.0,91,0.00,,BKN004,0.00,VWS V14.01,2013-05-08 02:21:00,
2013-05-07 22:26:00,54.0,51.4,17.72,West,265,0.0,0.0,91,0.00,,BKN004,0.00,VWS V14.01,2013-05-08 02:26:00,
2013-05-07 22:31:00,53.6,50.7,17.72,West,265,0.0,0.0,90,0.00,,BKN004,0.00,VWS V14.01,2013-05-08 02:31:00,
2013-05-07 22:36:00,53.1,50.5,17.72,West,265,0.0,0.0,91,0.00,,BKN004,0.00,VWS V14.01,2013-05-08 02:36:00,
2013-05-07 22:41:00,52.9,50.3,17.72,West,265,0.0,0.0,91,0.00,,SCT004,0.00,VWS V14.01,2013-05-08 02:41:00,
2013-05-07 22:46:00,52.5,50.0,17.72,West,265,0.0,0.0,91,0.00,,SCT004,0.00,VWS V14.01,2013-05-08 02:46:00,
2013-05-07 22:51:00,52.2,49.6,17.72,West,265,0.0,0.0,91,0.00,,SCT004,0.00,VWS V14.01,2013-05-08 02:51:00,
2013-05-07 22:56:00,52.0,49.4,17.72,West,265,0.0,0.0,91,0.00,,SCT004,0.00,VWS V14.01,2013-05-08 02:56:00,
2013-05-07 23:01:00,51.8,49.3,17.72,West,265,0.0,0.0,91,0.00,,FEW004,0.00,VWS V14.01,2013-05-08 03:01:00,
2013-05-07 23:06:00,51.6,49.1,17.72,West,265,0.0,0.0,91,0.00,,FEW004,0.00,VWS V14.01,2013-05-08 03:06:00,
2013-05-07 23:11:00,51.6,49.1,17.72,West,265,0.0,0.0,91,0.00,,FEW004,0.00,VWS V14.01,2013-05-08 03:11:00,
2013-05-07 23:16:00,51.4,48.9,17.72,West,265,0.0,0.0,91,0.00,,FEW004,0.00,VWS V14.01,2013-05-08 03:16:00,
2013-05-07 23:21:00,51.3,48.7,17.72,West,265,0.0,0.0,91,0.00,,FEW004,0.00,VWS V14.01,2013-05-08 03:21:00,
2013-05-07 23:26:00,51.1,48.5,17.72,West,265,0.0,0.0,91,0.00,,FEW004,0.00,VWS V14.01,2013-05-08 03:26:00,
2013-05-07 23:31:00,50.9,48.4,17.72,West,265,0.0,0.0,91,0.00,,FEW004,0.00,VWS V14.01,2013-05-08 03:31:00,
2013-05-07 23:36:00,50.7,48.2,17.72,West,265,0.0,0.0,91,0.00,,FEW004,0.00,VWS V14.01,2013-05-08 03:36:00,
2013-05-07 23:41:00,50.7,48.2,17.72,West,265,0.0,0.0,91,0.00,,FEW004,0.00,VWS V14.01,2013-05-08 03:41:00,
2013-05-07 23:46:00,50.7,48.2,17.72,West,265,0.0,0.0,91,0.00,,FEW004,0.00,VWS V14.01,2013-05-08 03:46:00,
2013-05-07 23:51:00,50.5,48.0,17.72,West,265,0.0,0.0,91,0.00,,FEW004,0.00,VWS V14.01,2013-05-08 03:51:00,
2013-05-07 23:56:00,50.5,48.0,17.72,West,265,0.0,0.0,91,0.00,,FEW004,0.00,VWS V14.01,2013-05-08 03:56:00,